User: anonymous   Login
Location: Newark
(42.7133°N, 87.7910°W)
Time: 23:29:09
(UTC+00:00)
Language:

deb Explorer IX - Orbit

View from above orbital plane
View from above orbital plane
View from above satellite
View from above satellite

Ground track
Ground track

The orbit data is extracted from the following two-line orbital elements,

1    85U 61004C   19261.25567769 -.00002222 +00000-0 -45299-3 0  9992
2    85 038.7743 333.6474 0390583 119.5583 244.4682 14.19938100892248
Epoch (UTC): 18 September 2019 06:08:10
Eccentricity: 0.0390583
inclination: 38.7743°
perigee height: 544 km
apogee height: 1107 km
right ascension of ascending node: 333.6474°
argument of perigee: 119.5583°
revolutions per day: 14.19938100
mean anomaly at epoch: 244.4682°
orbit number at epoch: 89224

The dashed part of the orbit path shows where the satellite is in the earth's shadow,  

DLR